Location: Bremen
(53.0793°N, 8.8017°E)
Time: 12:19:56
(UTC+02:00)

Transit 2A Rocket - Pass Details

Date: 26 June 2024
Orbit: 582 x 910 km, 66.7° (Epoch: 19 July)

Event Time Altitude Azimuth Distance (km) Brightness Sun altitude
Rises 02:03:24 0° 307° (NW) 3,400 8.8 -13.2°
Reaches altitude 10° 02:06:19 10° 321° (NW) 2,511 8.3 -13.1°
Maximum altitude 02:11:01 24° 14° (NNE) 1,769 7.9 -13.0°
Drops below altitude 10° 02:15:51 10° 67° (ENE) 2,598 8.2 -12.9°
Sets 02:18:55 0° 81° (E) 3,546 8.7 -12.8°
